#timestamp,LO_Frequency,Hit,StdDev 
1555621215.6,286046996.1,N
1555621235.4,286046996.4,N
1555621255.2,286046995.5,N
1555621275.1,286046992.4,N
1555621276.0,286046992.4,N
1555621295.8,286046991.8,N
1555621315.7,286046991.7,N
1555621335.5,286046994.6,N
1555621355.3,286046994.5,N
1555621375.2,286046997.3,N
1555621395.0,286046998.3,N
1555621395.9,286046998.3,N
1555621415.7,286046995.0,N
1555621435.6,286046999.5,N
1555621455.4,286046998.0,N
1555621475.3,286046995.8,N
1555621495.1,286046998.7,N
1555621515.8,286047006.0,N
1555621535.7,286047007.6,N
1555621555.5,286047001.5,N
1555621575.3,286047002.2,N
1555621595.2,286047000.6,N
1555621615.0,286047005.0,N
1555621615.9,286047005.0,N
1555621635.8,286047008.6,N
1555621655.6,286047008.5,N
1555621675.4,286047009.1,N
1555621695.3,286047007.8,N
1555621715.1,286047012.1,N
1555621735.9,286047012.9,N
1555621755.7,286047015.2,N
1555621775.5,286047018.4,N
1555621795.4,286047019.0,N
1555621815.2,286047015.8,N
1555621835.0,286047014.6,N
1555621835.9,286047014.6,N
1555621855.8,286047017.0,N
1555621875.6,286047014.8,N
1555621895.5,286047019.8,N
1555621915.3,286047022.8,N
1555621935.1,286047024.4,Y
1555621955.9,286047014.8,P
1555621975.7,286047014.5,P
1555621995.5,286047012.6,P
1555622015.4,286047014.7,Y
1555622035.2,286047005.8,P
1555622055.1,286047005.4,N
1555622056.0,286047005.4,N
1555622075.8,286047006.5,N
1555622095.6,286047006.4,N
1555622115.5,286047010.3,Y
1555622135.3,286047003.4,P
1555622155.2,286047001.8,N
1555622175.9,286047001.3,N
1555622195.7,286047004.1,N
1555622215.6,286047005.8,N
1555622235.4,286047009.1,Y
1555622255.2,286047005.8,P
1555622275.1,286047005.7,P
1555622276.0,286047005.7,P
1555622295.8,286047000.1,N
1555622315.7,286047000.5,N
1555622335.5,286047004.2,N
1555622355.3,286047003.1,N
1555622375.2,286047003.3,N
1555622395.0,286047005.0,N
1555622395.9,286047005.0,N
1555622415.8,286047005.3,N
1555622435.6,286047007.2,Y
1555622455.4,286047005.9,P
1555622475.3,286047004.0,P
1555622495.1,286046998.2,N
1555622515.9,286046999.0,N
1555622535.7,286046998.3,N
1555622555.5,286047003.0,N
1555622575.4,286047008.8,N
1555622595.2,286047008.0,N
1555622615.0,286047011.8,Y
1555622616.0,286047011.8,P
1555622635.8,286047009.8,N
1555622655.6,286047007.8,N
1555622675.5,286047012.9,Y
1555622695.3,286047006.0,P
1555622715.1,286047002.7,N
1555622735.9,286047004.9,N
1555622755.7,286047005.2,N
1555622775.6,286047011.7,Y
1555622795.4,286047010.0,P
1555622815.2,286047010.4,P
1555622835.1,286047010.4,P
1555622836.0,286047010.4,Y
1555622855.8,286047001.2,P
1555622875.7,286047000.0,N
1555622895.5,286047000.8,N
1555622915.3,286047005.8,N
1555622935.2,286047007.0,N
1555622955.0,286047004.8,N
1555622955.9,286047004.8,N
1555622975.8,286047004.5,N
1555622995.6,286047006.6,N
1555623015.4,286047009.8,Y
1555623035.3,286047004.5,P
1555623055.1,286047002.9,P
1555623075.8,286047008.3,P
1555623095.7,286047011.7,Y
1555623115.5,286047008.7,P
1555623135.4,286047002.0,N
1555623155.2,286047005.4,N
1555623175.0,286047003.2,N
1555623175.9,286047003.2,N
1555623195.8,286046999.3,N
1555623215.6,286046997.7,N
1555623235.4,286047002.2,N
1555623255.3,286047001.7,N
1555623275.1,286047004.9,N
1555623295.9,286047001.6,N
1555623315.7,286047004.8,N
1555623335.5,286047005.6,N
1555623355.4,286047005.3,N
1555623375.2,286047004.4,N
1555623395.0,286046998.1,N
1555623415.1,286047000.3,N
1555623416.0,286047000.3,N
1555623435.8,286047002.7,N
1555623455.7,286047004.1,N
1555623475.5,286046999.7,N
1555623495.3,286046998.7,N
1555623515.2,286047000.4,N
1555623535.0,286047002.6,N
1555623535.9,286047002.6,N
1555623555.8,286047002.5,N
1555623575.6,286046998.3,N
1555623595.4,286046998.9,N
1555623615.3,286046991.6,Y
1555623635.1,286046990.9,P
1555623655.8,286046993.0,N
1555623675.7,286046996.3,N
1555623695.5,286046996.2,N
1555623715.4,286046996.4,N
1555623735.2,286046993.8,N
1555623755.0,286046998.7,N
1555623785.9,286047003.1,E
1555623795.9,286047005.1,N
1555623815.7,286047010.6,P
1555623835.5,286047013.7,P
1555623855.4,286047011.6,Y
1555623875.2,286047001.4,P
1555623895.1,286047000.8,N
1555623896.0,286047000.8,N
1555623915.8,286046995.8,N
1555623935.6,286046997.0,N
1555623955.5,286046999.3,N
1555623975.3,286046996.5,N
1555623995.2,286046999.3,N
1555624015.9,286047000.3,N
1555624035.7,286047002.8,N
1555624055.6,286046993.7,N
1555624075.4,286046992.9,N
1555624095.2,286046995.2,N
1555624115.1,286046995.6,N
1555624116.0,286046995.6,N
1555624135.8,286046998.3,N
1555624155.7,286047002.4,N
1555624175.5,286047000.1,N
1555624195.3,286047002.4,N
1555624215.2,286047007.1,N
1555624235.0,286047008.9,N
1555624235.9,286047008.9,N
1555624255.8,286047013.0,N
1555624275.6,286047015.2,N
1555624295.4,286047014.2,N
1555624315.3,286047019.6,Y
1555624335.1,286047018.1,P
1555624355.9,286047014.7,N
1555624375.7,286047013.5,N
1555624395.5,286047016.6,N
1555624415.4,286047018.8,Y
1555624435.2,286047005.7,P
1555624455.1,286047001.9,N
1555624456.0,286047001.9,N
1555624475.8,286047005.0,N
1555624495.6,286047007.1,N
1555624515.5,286047007.1,N
1555624535.3,286047006.9,N
1555624555.2,286047003.6,N
1555624575.9,286047004.2,N
1555624595.7,286047007.9,N
1555624615.6,286047011.4,Y
1555624635.4,286047009.8,P
1555624655.3,286047007.9,P
1555624675.1,286047012.2,P
1555624676.0,286047012.2,Y
1555624695.8,286047001.7,P
1555624715.7,286047003.5,N
1555624735.5,286047000.0,N
1555624755.3,286047005.7,N
1555624775.2,286047006.3,N
1555624795.0,286047006.1,N
1555624795.9,286047006.1,N
